Location: Exeidioux
(45.6312°N, 1.6819°E)
Time: 12:30:01
(UTC+00:00)

ERS-2 - Pass Details

Date: 03 March 2021
Orbit: 492 x 496 km, 98.6° (Epoch: 11 April)

Event Time Altitude Azimuth Distance (km) Brightness Sun altitude
Rises 18:23:10 0° 20° (NNE) 2,593 5.5 -7.8°
Reaches altitude 10° 18:25:20 10° 27° (NNE) 1,705 4.6 -8.2°
Maximum altitude 18:28:50 43° 100° (E) 714 2.4 -8.8°
Drops below altitude 10° 18:32:19 10° 173° (S) 1,692 4.7 -9.4°
Sets 18:34:27 0° 180° (S) 2,570 5.7 -9.8°
